This is the latest recevied weather packets stored in our database for station/object KD0OXW. If no packets are shown the sender has not sent any weather packets the latest 10 day(s).
| Time | Temp. | Humidity | Pressure | Rain* | Wind** | Luminosity | Snow |
|---|---|---|---|---|---|---|---|
| 1777658002 | 6.11° C | 46% | 1020 hPa | 0 mm | - | - | - |
| 1777657702 | 6.11° C | 45% | 1020.2 hPa | 0 mm | - | - | - |
| 1777657402 | 6.11° C | 47% | 1020.2 hPa | 0 mm | - | - | - |
| 1777657102 | 5.56° C | 43% | 1020.3 hPa | 0 mm | - | - | - |
| 1777656802 | 6.11° C | 43% | 1020.2 hPa | 0 mm | - | - | - |
| 1777656502 | 6.67° C | 47% | 1020.2 hPa | 0 mm | - | - | - |
| 1777656202 | 6.67° C | 47% | 1020.3 hPa | 0 mm | - | - | - |
| 1777655902 | 6.11° C | 46% | 1020.3 hPa | 0 mm | - | - | - |
| 1777655602 | 6.11° C | 45% | 1020.3 hPa | 0 mm | - | - | - |
| 1777655302 | 6.11° C | 46% | 1020.3 hPa | 0 mm | - | - | - |
| 1777655002 | 6.11° C | 47% | 1020.3 hPa | 0 mm | - | - | - |
| 1777654702 | 6.11° C | 48% | 1020.2 hPa | 0 mm | - | - | - |
| 1777654402 | 6.11° C | 45% | 1020.3 hPa | 0 mm | - | - | - |
| 1777654102 | 6.11° C | 48% | 1020.4 hPa | 0 mm | - | - | - |
| 1777653802 | 5.56° C | 45% | 1020.5 hPa | 0 mm | - | - | - |
| 1777653502 | 5.56° C | 50% | 1020.4 hPa | 0 mm | - | - | - |
| 1777653202 | 5.56° C | 49% | 1020.5 hPa | 0 mm | - | - | - |
| 1777652902 | 5° C | 47% | 1020.5 hPa | 0 mm | - | - | - |
| 1777652602 | 5° C | 50% | 1020.6 hPa | 0 mm | - | - | - |
| 1777652302 | 5° C | 51% | 1020.5 hPa | 0 mm | - | - | - |
| 1777652002 | 5° C | 50% | 1020.6 hPa | 0 mm | - | - | - |
| 1777651702 | 5° C | 52% | 1020.5 hPa | 0 mm | - | - | - |
| 1777651402 | 5° C | 51% | 1020.5 hPa | 0 mm | - | - | - |
| 1777651102 | 4.44° C | 51% | 1020.6 hPa | 0 mm | - | - | - |
| 1777650802 | 5° C | 52% | 1020.6 hPa | 0 mm | - | - | - |
* Rain latest hour (hover to see other rain measurements)
** Current wind speed in m/s (hover to see current wind gust speed)